Location: Caualo
(45.5667°N, 10.8667°E)
Time: 12:06:08
(UTC+00:00)

STARLINK-1372 - Pass Details

Date: 07 June 2020
Orbit: 548 x 551 km, 53.0° (Epoch: 02 July)

Event Time Altitude Azimuth Distance (km) Brightness Sun altitude
Rises 02:38:43 0° 301° (WNW) 2,718 7.0 -7.5°
Reaches altitude 10° 02:40:57 10° 303° (WNW) 1,822 6.1 -7.3°
Maximum altitude 02:45:06 77° 31° (NNE) 567 3.8 -6.7°
Drops below altitude 10° 02:49:13 10° 117° (ESE) 1,814 6.6 -6.2°
Sets 02:51:27 0° 119° (ESE) 2,704 7.4 -5.9°
